This is the latest recevied weather packets stored in our database for station/object KB8SSH. If no packets are shown the sender has not sent any weather packets the latest 10 day(s).
| Time | Temp. | Humidity | Pressure | Rain* | Wind** | Luminosity | Snow |
|---|---|---|---|---|---|---|---|
| 1777591971 | 12.22° C | 50% | 1048.1 hPa | 0 mm | - | 30 W/m² | - |
| 1777591667 | 12.78° C | 50% | 1048.4 hPa | 0 mm | - | 34 W/m² | - |
| 1777591363 | 12.78° C | 49% | 1048.4 hPa | 0 mm | - | 36 W/m² | - |
| 1777591059 | 12.78° C | 49% | 1048.4 hPa | 0 mm | - | 48 W/m² | - |
| 1777590755 | 12.78° C | 50% | 1048.1 hPa | 0 mm | - | 44 W/m² | - |
| 1777590451 | 12.78° C | 49% | 1048.4 hPa | 0 mm | - | 48 W/m² | - |
| 1777590148 | 12.78° C | 50% | 1048.4 hPa | 0 mm | - | 54 W/m² | - |
| 1777589844 | 12.78° C | 49% | 1048.4 hPa | 0 mm | - | 49 W/m² | - |
| 1777589539 | 12.78° C | 49% | 1048.4 hPa | 0 mm | - | 48 W/m² | - |
| 1777589238 | 12.78° C | 48% | 1048.1 hPa | 0 mm | - | 45 W/m² | - |
| 1777588935 | 12.78° C | 48% | 1048.1 hPa | 0 mm | - | 47 W/m² | - |
| 1777588630 | 13.33° C | 46% | 1048.4 hPa | 0 mm | - | 56 W/m² | - |
| 1777588326 | 13.89° C | 44% | 1048.1 hPa | 0 mm | - | 151 W/m² | - |
| 1777588022 | 13.89° C | 45% | 1048.4 hPa | 0 mm | - | 228 W/m² | - |
| 1777587717 | 12.78° C | 47% | 1048.1 hPa | 0 mm | - | 232 W/m² | - |
| 1777587412 | 13.33° C | 47% | 1048.1 hPa | 0 mm | - | 57 W/m² | - |
| 1777587109 | 12.78° C | 46% | 1048.1 hPa | 0 mm | - | 77 W/m² | - |
| 1777586805 | 12.78° C | 47% | 1048.1 hPa | 0 mm | - | 302 W/m² | - |
| 1777586500 | 12.22° C | 49% | 1048.1 hPa | 0 mm | - | 58 W/m² | - |
| 1777586196 | 12.78° C | 49% | 1048.1 hPa | 0 mm | - | 59 W/m² | - |
| 1777585893 | 12.78° C | 47% | 1048.4 hPa | 0 mm | - | 58 W/m² | - |
| 1777585588 | 13.33° C | 47% | 1048.1 hPa | 0 mm | - | 82 W/m² | - |
| 1777585284 | 13.33° C | 47% | 1048.4 hPa | 0 mm | - | 244 W/m² | - |
| 1777584978 | 13.33° C | 49% | 1048.1 hPa | 0 mm | - | 205 W/m² | - |
| 1777584676 | 13.33° C | 46% | 1048.1 hPa | 0 mm | - | 123 W/m² | - |
* Rain latest hour (hover to see other rain measurements)
** Current wind speed in m/s (hover to see current wind gust speed)